[[{"header":{"parameterUnit":"m.s-1","parameterCategory":1,"la1":30.2991,"la2":30.254,"lo1":-89.0895,"lo2":-89.0444,"dy":0.0017,"dx":0.0017,"nx":28,"ny":28,"refTime":"2026-01-02T03:00:00:Z","depth":0,"parameterNumber":2,"parameterNumberName":"U-component_of_WINDS"},"data":[0,0,0,0,0,0,0,0,0,0,0,0,0,0,0,0,0,0,0,0,0,0,0,0,0,0,0,0,0,0,0,0,0,0,0,0,0,0,0,0,0,0,0,0,0,0,0,0,0,0,0,0,0,0,0,0,0,0,2.2232,2.2232,0,2.223,2.223,2.223,2.219,2.2189,2.2188,2.2188,2.2186,2.2187,2.2188,0,0,0,0,0,0,0,0,0,0,0,0,0,2.2203,2.2204,2.2232,2.2232,2.2232,2.223,2.223,2.223,2.2191,2.2189,2.2188,2.2187,2.2186,2.2187,2.2188,0,0,0,0,0,0,0,0,0,0,0,0,0,2.221,2.2204,2.2232,2.2212,2.221,2.223,2.223,2.223,2.2191,2.2189,2.2188,2.2186,2.2186,2.2187,2.2188,2.2227,0,0,2.2193,2.2193,0,0,0,0,0,0,0,0,2.221,2.2211,2.2215,2.2214,2.2212,2.2209,2.2219,2.2229,2.2191,2.2198,2.2187,2.2186,2.2195,2.2196,2.2199,2.2227,2.2227,2.2193,2.2194,2.2194,2.2195,0,0,0,0,0,0,0,2.2209,2.2211,2.2231,2.2215,2.2213,2.2204,2.2203,2.2221,2.2205,2.2198,2.2195,2.2195,2.2194,2.2197,2.2198,2.2227,2.2193,2.2194,2.2195,2.2195,2.2287,2.2288,0,0,0,0,0,0,2.2211,2.2211,2.2231,2.2231,2.2207,2.2205,2.2205,2.2211,2.2205,2.2203,2.2196,2.2193,2.2196,2.2197,2.2198,2.2242,2.2194,2.2195,2.2196,2.2285,2.2287,2.2289,0,0,0,0,0,0,2.2211,2.2214,2.2231,2.222,2.2222,2.2208,2.2215,2.2212,2.2215,2.2204,2.2201,2.2203,2.2195,2.2196,2.222,2.2242,2.2196,2.2197,2.2283,2.2286,2.2288,2.2332,0,0,0,0,0,0,2.221,2.2214,2.2228,2.2221,2.2223,2.2253,2.2217,2.2213,2.2218,2.2214,2.2209,2.2207,2.2194,2.2218,2.2221,2.2243,2.2198,2.2281,2.2284,2.2287,2.2328,2.2335,2.2342,0,0,0,0,0,2.2209,2.2241,2.2229,2.2232,2.224,2.2254,2.2255,2.2239,2.222,2.2234,2.2227,2.2207,2.2239,2.2221,2.2224,2.2247,2.228,2.2283,2.2287,2.2325,2.2334,2.2341,0,0,0,0,0,0,2.2251,2.224,2.2226,2.2256,2.2257,2.2248,2.2265,2.2249,2.2255,2.2251,2.2231,2.223,2.2257,2.2254,2.2234,2.2283,2.2256,2.226,2.2284,2.2292,2.2299,2.2299,2.22,0,0,0,0,0,2.2264,2.2276,2.2266,2.2293,2.2294,2.228,2.2285,2.2273,2.2272,2.2273,2.2267,2.2268,2.2278,2.2285,2.2294,2.2328,2.2326,2.2345,2.2352,2.2357,2.2361,2.2379,2.2387,2.2301,2.2301,2.2301,0,0,2.229,2.2286,2.2295,2.2301,2.23,2.2313,2.228,2.2296,2.2306,2.2275,2.2297,2.2293,2.2292,2.2322,2.2334,2.232,2.2384,2.2362,2.2366,2.2367,2.2383,2.2391,2.2399,2.2303,2.2303,2.2302,0,0,2.2345,2.2343,2.2365,2.2365,2.2363,2.2353,2.2359,2.2353,2.2349,2.237,2.2347,2.2359,2.2377,2.2378,2.238,2.2435,2.2418,2.2439,2.2473,2.2491,2.2497,2.2503,2.2522,2.253,2.2443,2.2443,2.2443,0,2.2378,2.2397,2.2379,2.2396,2.2399,2.2372,2.2395,2.2395,2.2397,2.24,2.2384,2.2406,2.2404,2.2433,2.2446,2.2449,2.2455,2.2439,2.2498,2.2504,2.2509,2.2527,2.2534,2.2446,2.2445,2.2445,2.2445,0,2.2437,2.2451,2.2469,2.2471,2.2477,2.2497,2.2482,2.249,2.2477,2.2469,2.2491,2.2488,2.2495,2.2501,2.2489,2.2528,2.2519,2.2501,2.2473,2.252,2.2536,2.2543,2.2449,2.2448,2.2448,2.2447,0,0,2.2518,2.2509,2.2516,2.2517,2.2513,2.2523,2.2542,2.2549,2.2556,2.2558,2.2573,2.2589,2.2572,2.2575,2.2563,2.2578,2.2622,2.2558,2.2558,2.257,2.2664,2.2678,2.2686,2.261,2.2611,2.2612,2.2664,0,2.257,2.2601,2.2585,2.2618,2.263,2.2605,2.2621,2.2621,2.2614,2.2624,2.2617,2.2628,2.2605,2.2606,2.2621,2.2613,2.264,2.261,2.2624,2.2625,2.2624,2.2695,2.2709,2.2758,2.2671,2.2672,2.2673,0,2.2635,2.2639,2.2674,2.2667,2.2672,2.2687,2.2692,2.2701,2.2701,2.2695,2.2698,2.2682,2.27,2.2673,2.2698,2.2677,2.2682,2.268,2.2681,2.2682,2.2651,2.2697,2.2773,2.2781,2.2683,2.2682,2.2681,0,2.2689,2.2704,2.2726,2.2727,2.2721,2.2732,2.273,2.2728,2.2733,2.2738,2.2741,2.2748,2.2751,2.2757,2.2744,2.2725,2.277,2.2742,2.2766,2.2766,2.2776,2.2776,2.2854,2.2781,2.2781,2.278,2.278,0,2.2749,2.2771,2.275,2.2764,2.2788,2.277,2.2794,2.2789,2.2787,2.28,2.2779,2.2791,2.2772,2.2783,2.2773,2.2795,2.2797,2.2792,2.2789,2.2794,2.2794,2.2797,2.2793,2.2782,2.2782,2.2782,2.2781,0,2.2813,2.2801,2.2823,2.2815,2.2814,2.2832,2.2825,2.2837,2.283,2.2845,2.2848,2.2836,2.2847,2.2834,2.2845,2.2838,2.2867,2.286,2.2867,2.2865,2.2889,2.2887,2.2972,2.2982,2.2902,2.2903,2.2904,0,2.2852,2.2868,2.2862,2.2868,2.2867,2.2878,2.2883,2.2867,2.2873,2.2873,2.2886,2.2895,2.2901,2.2921,2.2913,2.2921,2.2913,2.2942,2.2914,2.2918,2.2913,2.2912,2.2913,2.2948,2.2949,2.2949,2.295,0,2.2921,2.2914,2.2922,2.2927,2.2934,2.2938,2.294,2.2947,2.2929,2.2938,2.2948,2.2954,2.2964,2.2974,2.298,2.2978,2.2961,2.2959,2.2965,2.2969,2.2973,2.2971,2.2882,2.2957,2.2956,2.2956,2.2955,2.2955,2.2973,2.2986,2.2983,2.2993,2.2993,2.2995,2.3007,2.3,2.3009,2.3015,2.3005,2.3019,2.3018,2.3024,2.3025,2.3035,2.3023,2.3032,2.3034,2.3036,2.3039,2.2972,2.3037,2.3036,2.3036,2.3036,2.3036,0,2.304,2.3037,2.3046,2.305,2.3058,2.3041,2.3043,2.305,2.3063,2.3063,2.307,2.3083,2.3092,2.3085,2.3093,2.3103,2.3096,2.3106,2.3104,2.3104,2.305,2.3044,2.3112,2.3112,2.3112,2.3112,2.3111,2.3111,2.3076,2.3097,2.309,2.311,2.3108,2.3121,2.3123,2.3126,2.3126,2.3141,2.3148,2.3144,2.3141,2.3149,2.3157,2.3155,2.3158,2.3171,2.3166,2.3116,2.3108,2.3101,2.3095,2.3172,2.3172,2.3219,2.322,2.322]},{"header":{"parameterUnit":"m.s-1","parameterCategory":1,"la1":30.2991,"la2":30.254,"lo1":-89.0895,"lo2":-89.0444,"dy":0.0017,"dx":0.0017,"nx":28,"ny":28,"refTime":"2026-01-02T03:00:00:Z","depth":0,"parameterNumber":3,"parameterNumberName":"V-component_of_WINDS"},"data":[0,0,0,0,0,0,0,0,0,0,0,0,0,0,0,0,0,0,0,0,0,0,0,0,0,0,0,0,0,0,0,0,0,0,0,0,0,0,0,0,0,0,0,0,0,0,0,0,0,0,0,0,0,0,0,0,0,0,6.3514,6.3516,0,6.3704,6.3706,6.3708,6.3731,6.3729,6.3727,6.3726,6.3921,6.3928,6.3935,0,0,0,0,0,0,0,0,0,0,0,0,0,6.3173,6.3179,6.3514,6.3516,6.3518,6.3703,6.3706,6.3709,6.3731,6.3729,6.3727,6.3725,6.3919,6.3927,6.3936,0,0,0,0,0,0,0,0,0,0,0,0,0,6.3338,6.3181,6.3513,6.3552,6.3557,6.3703,6.3706,6.3709,6.3732,6.3729,6.3726,6.3724,6.3916,6.3926,6.3937,6.4057,0,0,6.3968,6.3973,0,0,0,0,0,0,0,0,6.3328,6.335,6.3544,6.355,6.3556,6.3691,6.3658,6.3826,6.3733,6.3666,6.3726,6.3722,6.3847,6.3863,6.3905,6.4066,6.4074,6.3969,6.3976,6.398,6.3983,0,0,0,0,0,0,0,6.3317,6.3342,6.3589,6.3547,6.3554,6.3561,6.3581,6.369,6.377,6.3671,6.3673,6.3696,6.385,6.3895,6.3909,6.4077,6.3969,6.3978,6.3985,6.3989,6.435,6.4353,0,0,0,0,0,0,6.3298,6.3332,6.3583,6.3595,6.3433,6.3569,6.3592,6.365,6.3769,6.3784,6.3698,6.3696,6.3878,6.3897,6.3916,6.4067,6.398,6.399,6.3996,6.4346,6.435,6.4354,0,0,0,0,0,0,6.3291,6.332,6.3575,6.3464,6.3497,6.3578,6.3644,6.3656,6.3701,6.3789,6.3803,6.3729,6.3877,6.3902,6.4022,6.4074,6.3995,6.4004,6.4342,6.4348,6.4352,6.4368,0,0,0,0,0,0,6.3281,6.3317,6.3363,6.3465,6.3503,6.3677,6.3647,6.3661,6.3718,6.3718,6.3822,6.3836,6.3876,6.4007,6.4033,6.4087,6.4012,6.4338,6.4345,6.4351,6.4363,6.4373,6.4381,0,0,0,0,0,6.3269,6.336,6.3365,6.3395,6.3562,6.368,6.3702,6.3746,6.3722,6.377,6.3827,6.3833,6.4064,6.4019,6.4048,6.4106,6.4335,6.4343,6.435,6.4359,6.4371,6.4381,0,0,0,0,0,0,6.3261,6.3373,6.3381,6.3508,6.3584,6.3684,6.3745,6.3757,6.3842,6.3838,6.3889,6.3913,6.4032,6.4081,6.4029,6.423,6.4197,6.4211,6.4194,6.4206,6.4215,6.4201,6.4021,0,0,0,0,0,6.3274,6.336,6.3454,6.3557,6.3595,6.3663,6.3716,6.3744,6.3825,6.3858,6.3923,6.4003,6.4094,6.4152,6.424,6.437,6.4394,6.4425,6.4433,6.444,6.4452,6.4527,6.4542,6.4379,6.4379,6.4378,0,0,6.3302,6.3374,6.3425,6.3557,6.362,6.3709,6.369,6.3784,6.3852,6.3872,6.3991,6.4042,6.4134,6.426,6.4319,6.4305,6.4503,6.445,6.4455,6.4463,6.4536,6.4552,6.4565,6.4384,6.4383,6.4382,0,0,6.3399,6.3462,6.3555,6.3619,6.3714,6.3759,6.3781,6.388,6.3915,6.4034,6.4052,6.4133,6.4287,6.4353,6.4407,6.4531,6.4541,6.4558,6.4605,6.4678,6.4691,6.4702,6.4749,6.4765,6.4569,6.4569,6.4569,0,6.3422,6.3557,6.3602,6.3697,6.3755,6.3778,6.3874,6.3933,6.4052,6.4093,6.4075,6.4271,6.4335,6.4478,6.4508,6.455,6.4579,6.4547,6.4685,6.4697,6.4709,6.4754,6.4771,6.4571,6.4571,6.457,6.457,0,6.3582,6.3675,6.3739,6.3854,6.392,6.4014,6.4075,6.4136,6.4158,6.4205,6.4328,6.4405,6.4511,6.4546,6.4569,6.4694,6.4682,6.4674,6.4642,6.4725,6.4769,6.4786,6.4573,6.4573,6.4572,6.4572,0,0,6.3679,6.3819,6.3842,6.3896,6.4003,6.4076,6.4173,6.4276,6.4329,6.441,6.4494,6.4625,6.4619,6.468,6.471,6.4773,6.487,6.4758,6.4761,6.4778,6.5015,6.5022,6.5041,6.4876,6.4879,6.4882,6.5008,0,6.379,6.3963,6.4007,6.4155,6.4243,6.4266,6.4351,6.4427,6.4474,6.4556,6.4608,6.4702,6.4685,6.4722,6.4786,6.4844,6.4918,6.4835,6.4956,6.496,6.4934,6.5063,6.507,6.5185,6.5025,6.5028,6.503,0,6.3942,6.4028,6.4185,6.4283,6.4322,6.4397,6.4496,6.4574,6.4661,6.4691,6.476,6.4784,6.4888,6.485,6.4994,6.4937,6.4989,6.5025,6.5031,6.5045,6.5001,6.5083,6.5222,6.524,6.5056,6.5054,6.5052,0,6.4,6.4155,6.4269,6.4314,6.4431,6.4484,6.4535,6.4619,6.4679,6.4766,6.4806,6.4904,6.4958,6.5033,6.5084,6.5051,6.5225,6.5191,6.5255,6.5254,6.5291,6.5289,6.5443,6.5322,6.5321,6.5321,6.5321,0,6.4121,6.4216,6.4297,6.4368,6.4476,6.4526,6.4633,6.4684,6.476,6.4842,6.4868,6.4944,6.5006,6.5092,6.5132,6.5247,6.527,6.5299,6.5309,6.5298,6.5295,6.5334,6.5328,6.5326,6.5325,6.5324,6.5323,0,6.4204,6.4262,6.4389,6.449,6.4517,6.4593,6.468,6.475,6.4798,6.4902,6.4929,6.5005,6.5107,6.5166,6.5294,6.5321,6.545,6.5455,6.542,6.5425,6.5487,6.5481,6.5674,6.5702,6.5559,6.5561,6.5562,0,6.4278,6.4352,6.4461,6.4518,6.457,6.4661,6.4723,6.4776,6.4839,6.4946,6.5003,6.5107,6.5193,6.5356,6.5423,6.5522,6.5531,6.5592,6.5546,6.5533,6.5535,6.5531,6.5539,6.56,6.5601,6.5602,6.5603,0,6.4403,6.4429,6.4517,6.4616,6.4689,6.4769,6.4848,6.4894,6.496,6.503,6.5135,6.5202,6.5334,6.5437,6.5542,6.5596,6.5612,6.5617,6.5637,6.5628,6.5606,6.5621,6.5444,6.5612,6.5612,6.5611,6.561,6.561,6.4486,6.4554,6.4642,6.474,6.4805,6.488,6.4952,6.5009,6.5098,6.5209,6.5235,6.5346,6.5434,6.5576,6.5633,6.5722,6.5711,6.574,6.5748,6.5755,6.5758,6.559,6.5741,6.574,6.574,6.574,6.574,0,6.4615,6.4673,6.4762,6.4874,6.4951,6.4958,6.5047,6.5112,6.5209,6.529,6.5374,6.5496,6.5597,6.5673,6.5777,6.5833,6.5843,6.5859,6.5856,6.5869,6.576,6.5733,6.5849,6.5849,6.5849,6.5849,6.5849,6.5849,6.4691,6.4807,6.4844,6.4994,6.5051,6.5161,6.5211,6.5281,6.5345,6.548,6.5564,6.5613,6.5693,6.5802,6.5896,6.5916,6.5954,6.5969,6.599,6.5888,6.5876,6.5865,6.584,6.5976,6.5977,6.6092,6.6093,6.6094]}]]